This is the latest recevied weather packets stored in our database for station/object WZ9ZZZ-1. If no packets are shown the sender has not sent any weather packets the latest 10 day(s).
| Time | Temp. | Humidity | Pressure | Rain* | Wind** | Luminosity | Snow |
|---|---|---|---|---|---|---|---|
| 1777924613 | 26.67° C | 63% | 1017.3 hPa | 0 mm | - | 398 W/m² | - |
| 1777924310 | 26.67° C | 64% | 1017.5 hPa | 0 mm | - | 736 W/m² | - |
| 1777924007 | 27.22° C | 62% | 1017.4 hPa | 0 mm | - | 783 W/m² | - |
| 1777923702 | 26.67° C | 63% | 1017.6 hPa | 0 mm | - | 744 W/m² | - |
| 1777923399 | 26.67° C | 64% | 1017.3 hPa | 0 mm | - | 377 W/m² | - |
| 1777923097 | 27.78° C | 63% | 1017.7 hPa | 0 mm | - | 869 W/m² | - |
| 1777922795 | 27.22° C | 63% | 1017.7 hPa | 0 mm | - | 327 W/m² | - |
| 1777922493 | 26.67° C | 64% | 1017.6 hPa | 0 mm | - | 291 W/m² | - |
| 1777922191 | 26.11° C | 65% | 1017.7 hPa | 0 mm | - | 537 W/m² | - |
| 1777921887 | 26.67° C | 63% | 1017.6 hPa | 0 mm | - | 260 W/m² | - |
| 1777921583 | 27.22° C | 62% | 1017.7 hPa | 0 mm | - | 843 W/m² | - |
| 1777921280 | 26.11° C | 65% | 1018 hPa | 0 mm | - | 919 W/m² | - |
| 1777920976 | 26.67° C | 64% | 1018.1 hPa | 0 mm | - | 285 W/m² | - |
| 1777920673 | 26.67° C | 62% | 1017.9 hPa | 0 mm | - | 297 W/m² | - |
| 1777920369 | 26.11° C | 62% | 1017.8 hPa | 0 mm | - | 585 W/m² | - |
| 1777920064 | 26.67° C | 63% | 1017.6 hPa | 0 mm | - | 872 W/m² | - |
| 1777919762 | 26.67° C | 61% | 1017.7 hPa | 0 mm | - | 311 W/m² | - |
| 1777919459 | 26.67° C | 64% | 1017.9 hPa | 0 mm | - | 281 W/m² | - |
| 1777919156 | 26.67° C | 64% | 1018 hPa | 0 mm | - | 794 W/m² | - |
| 1777918854 | 26.11° C | 64% | 1018.2 hPa | 0 mm | - | 265 W/m² | - |
| 1777918551 | 26.11° C | 64% | 1018.1 hPa | 0 mm | - | 240 W/m² | - |
| 1777918249 | 26.67° C | 62% | 1018.3 hPa | 0 mm | - | 839 W/m² | - |
| 1777917947 | 26.67° C | 62% | 1018.5 hPa | 0 mm | - | 887 W/m² | - |
| 1777917646 | 26.11° C | 63% | 1018.3 hPa | 0 mm | - | 888 W/m² | - |
| 1777917343 | 26.11° C | 66% | 1018.3 hPa | 0 mm | - | 896 W/m² | - |
* Rain latest hour (hover to see other rain measurements)
** Current wind speed in m/s (hover to see current wind gust speed)